Terminal Aerodrome Forecast
Issued by NWS Chicago, IL

Home | Current Version | Previous Version | Graphics & Text | Print | Product List | Glossary On
Versions: 1 2 3 4 5 6 7 8 9 10 11 12 13 14 15 16 17 18 19 20 21 22 23 24 25 26 27 28 29 30 31 32 33 34 35
000
FTUS43 KLOT 201100
TAFRFD
TAF
KRFD 201131Z 2012/2112 VRB03KT P6SM SCT035 OVC045
     FM201700 17005KT P6SM OVC025
     FM202300 16006KT P6SM BKN025 OVC035
     FM210800 17006KT 5SM BR OVC015 PROB30 2108/2112 -FZDZ=

USA.gov is the U.S. government's official web portal to all federal, state and local government web resources and services.